Zurück zum Katalog

STARLINK-2377

AktivKommunikationVLEO
NORAD 47797·PAYLOAD·🇺🇸 United States

Gestartet Mar 11, 2021 von Cape Canaveral Space Force Station

Loading…

Nächste Überflüge (nächste 24 Stunden)

TLE

AktuellSource: CelesTrak SupGP

Epoche: Sep 14, 2026, 21:53 UTC

1 47797C 21018L   26257.91229167  .00023763  00000+0  76444-3 0  2570
2 47797  53.1579  94.7945 0001074  77.1065  23.5381 15.31679090    16

Verfolge STARLINK-2377 in Echtzeit mit AllMySat

Download on the App Store